sat.trackr.live / text

‹ back to catalog

STARLINK-2648

NORAD 48679 · 2021-044AT

PAYLOAD ACTIVE UNKNOWN

§ Identity

Operator
Country
US
Launch date
2021-05-26
Launch site
AFETR
Launch vehicle
Mass (kg)
RCS (m²)

Purposes: comms

External: N2YO · Heavens-Above · Gunter

§ Orbital elements

Epoch: 2026-09-09T11:33:08.661600Z

Period
94.01 min
Inclination
53.1592°
Eccentricity
0.0001183
Mean motion
15.31714282 rev/d
Perigee alt
469.9 km
Apogee alt
471.5 km
Semi-major
6,848.8 km
B*
1.3645e-4
RAAN
340.1130°
Arg perigee
70.6336°
Mean anomaly
289.4793°
Rev number
29,195

§ Raw data

STARLINK-26481 48679U 21044AT  26252.48135025  .00003873  00000+0  13645-3 0  99922 48679  53.1592 340.1130 0001183  70.6336 289.4793 15.31714282291953

JSON: /api/v1/satellites/48679 · /tle

For live sub-satellite position, see the globe view (requires WebGL).

§ Visibility from observer

Set your observer location to see the next 7 days of passes ≥ 10°. The values pass through the URL so the page stays shareable.

No JS? Fill the form by hand. The geolocation button needs JavaScript.